Date,Time,Wetness (Wet Dry or Ice),Wind Speed (m/s),Temperature (C),Humidity (%),Pressure (mb),Radiation (W/m^2)
2019-11-10,06:40:00,WET,8.87,3.47,88.3,776.00,2.9
2019-11-10,06:45:00,WET,9.85,3.85,97.0,776.00,25.0
2019-11-10,06:50:00,WET,9.83,3.77,89.0,776.00,39.9
2019-11-10,06:55:00,WET,12.20,4.05,78.0,776.00,23.0
2019-11-10,07:00:00,WET,10.73,3.77,84.3,776.00,16.3
2019-11-10,07:05:00,WET,10.60,3.70,83.5,776.00,7.3
2019-11-10,07:10:00,WET,9.47,3.97,72.3,776.00,1.8
2019-11-10,07:15:00,DRY,10.80,5.00,45.5,777.00,2.4
2019-11-10,07:20:00,DRY,7.50,5.00,50.7,776.67,3.3
2019-11-10,07:25:00,DRY,6.55,4.80,54.0,777.00,6.0
2019-11-10,07:30:00,DRY,4.40,5.20,40.7,777.00,8.1
2019-11-10,07:35:00,DRY,8.00,5.95,28.5,777.00,10.4
2019-11-10,07:40:00,DRY,5.50,6.43,28.0,777.00,13.3
2019-11-10,07:45:00,DRY,7.85,6.30,30.5,777.00,16.4
2019-11-10,07:50:00,DRY,7.77,6.27,31.3,777.00,19.3
2019-11-10,07:55:00,DRY,6.30,6.05,31.0,777.00,21.7
2019-11-10,08:00:00,DRY,9.00,6.00,35.0,777.00,24.0
2019-11-10,08:05:00,DRY,6.70,5.85,35.5,777.00,80.5
2019-11-10,08:10:00,DRY,6.57,6.07,33.3,777.00,146.8
2019-11-10,08:15:00,DRY,6.00,6.30,30.5,777.00,166.5
2019-11-10,08:20:00,DRY,8.07,6.20,36.0,777.00,186.6
2019-11-10,08:25:00,DRY,5.95,5.65,47.0,777.00,207.1
2019-11-10,08:30:00,DRY,5.47,5.93,38.0,777.00,228.2
2019-11-10,08:35:00,DRY,5.35,5.85,38.0,777.00,248.8
2019-11-10,08:40:00,DRY,8.83,5.20,59.3,777.00,269.6
2019-11-10,08:45:00,DRY,10.00,4.40,73.0,777.00,230.3
2019-11-10,08:50:00,WET,11.13,4.17,74.0,777.00,264.9
2019-11-10,08:55:00,DRY,10.70,4.20,74.5,777.00,302.5
2019-11-10,09:00:00,DRY,9.10,4.97,52.0,777.00,349.5
2019-11-10,09:05:00,DRY,8.20,6.10,38.0,777.00,372.2
2019-11-10,09:10:00,DRY,8.33,6.27,36.7,777.33,390.9
2019-11-10,09:15:00,DRY,7.65,6.60,34.0,777.00,410.5
2019-11-10,09:20:00,DRY,7.77,6.77,35.0,777.33,428.8
2019-11-10,09:25:00,DRY,3.85,6.60,36.0,777.50,447.6
2019-11-10,09:30:00,DRY,8.90,6.03,43.0,777.67,464.7
2019-11-10,09:35:00,DRY,7.50,5.75,50.5,778.00,484.4
2019-11-10,09:40:00,DRY,8.33,5.73,48.0,778.00,500.8
2019-11-10,09:45:00,DRY,8.25,5.80,51.0,778.00,517.5
2019-11-10,09:50:00,DRY,8.00,5.63,51.3,778.00,536.3
2019-11-10,09:55:00,DRY,6.75,5.80,52.0,778.00,551.2
2019-11-10,10:00:00,DRY,7.60,5.53,55.3,778.00,567.8
2019-11-10,10:05:00,DRY,7.40,4.80,66.5,778.00,563.2
2019-11-10,10:10:00,DRY,9.13,4.90,64.3,778.00,601.7
2019-11-10,10:15:00,DRY,9.40,4.95,67.0,778.00,613.2
2019-11-10,10:20:00,DRY,8.47,4.90,70.0,778.00,595.9
2019-11-10,10:25:00,DRY,5.25,4.65,72.0,778.00,640.5
2019-11-10,10:30:00,DRY,10.43,4.80,66.0,778.00,653.8
2019-11-10,10:35:00,DRY,8.05,5.00,59.5,778.00,668.6
2019-11-10,10:40:00,DRY,7.97,5.53,60.7,778.00,683.2
2019-11-10,10:45:00,DRY,8.15,5.50,46.5,778.00,692.3
2019-11-10,10:50:00,DRY,8.03,6.23,43.3,778.00,705.6
2019-11-10,10:55:00,DRY,7.50,6.45,43.5,778.00,715.8
2019-11-10,11:00:00,DRY,7.67,6.63,45.3,778.00,724.8
2019-11-10,11:05:00,DRY,7.65,6.55,47.5,778.00,738.1
2019-11-10,11:10:00,DRY,8.90,5.73,57.7,778.00,746.0
2019-11-10,11:15:00,DRY,8.65,5.35,57.5,778.00,756.2
2019-11-10,11:20:00,DRY,6.70,5.57,57.7,778.00,764.0
2019-11-10,11:25:00,DRY,9.80,5.90,50.0,778.00,772.8
2019-11-10,11:30:00,DRY,7.57,5.97,47.0,778.00,778.4
2019-11-10,11:35:00,DRY,9.20,6.50,42.0,778.00,787.2
2019-11-10,11:40:00,DRY,8.47,7.07,38.0,778.00,794.3
2019-11-10,11:45:00,DRY,6.20,7.20,37.5,778.00,802.0
2019-11-10,11:50:00,DRY,9.20,7.37,34.0,778.00,807.7
2019-11-10,11:55:00,DRY,8.75,7.20,38.5,778.00,814.8
2019-11-10,12:00:00,DRY,6.83,7.43,36.3,778.00,820.1
2019-11-10,12:05:00,DRY,7.10,7.05,44.0,778.00,825.8
2019-11-10,12:10:00,DRY,10.10,6.83,45.3,778.00,830.7
2019-11-10,12:15:00,DRY,9.10,6.50,51.0,777.00,836.2
2019-11-10,12:20:00,DRY,11.20,6.33,48.0,777.33,837.0
2019-11-10,12:25:00,WET,9.30,5.90,71.0,777.50,869.5
2019-11-10,12:30:00,WET,8.17,5.47,92.3,777.33,663.6
2019-11-10,12:35:00,WET,8.95,5.70,96.0,777.50,598.0
2019-11-10,12:40:00,WET,5.70,5.50,95.7,777.00,662.7
2019-11-10,12:45:00,WET,7.95,5.65,93.5,777.00,748.1
2019-11-10,12:50:00,DRY,7.80,6.13,73.7,777.00,885.6
2019-11-10,12:55:00,DRY,10.40,6.35,58.5,777.50,847.7
2019-11-10,13:00:00,DRY,9.00,6.40,59.3,777.00,845.8
2019-11-10,13:05:00,DRY,6.55,6.80,45.5,777.00,847.2
2019-11-10,13:10:00,DRY,9.03,6.40,51.7,777.00,844.5
2019-11-10,13:15:00,DRY,7.55,7.25,43.0,777.00,842.0
2019-11-10,13:20:00,DRY,8.20,7.50,39.3,777.00,839.9
2019-11-10,13:25:00,DRY,7.35,8.10,34.0,777.00,836.3
2019-11-10,13:30:00,DRY,6.30,7.80,32.0,777.00,835.3
2019-11-10,13:35:00,DRY,6.80,7.70,41.0,777.00,830.2
2019-11-10,13:40:00,DRY,9.57,6.63,65.0,777.00,826.6
2019-11-10,13:45:00,DRY,6.90,6.85,63.5,777.00,820.4
2019-11-10,13:50:00,DRY,6.60,8.33,34.3,777.00,816.1
2019-11-10,13:55:00,DRY,4.40,8.25,36.0,777.00,809.9
2019-11-10,14:00:00,DRY,7.37,8.07,31.7,777.00,803.8
2019-11-10,14:05:00,DRY,6.90,8.05,32.5,777.00,796.2
2019-11-10,14:10:00,DRY,6.17,8.23,30.7,777.00,787.4
2019-11-10,14:15:00,DRY,9.40,8.10,30.5,777.00,780.2
2019-11-10,14:20:00,DRY,8.67,8.00,29.3,777.00,773.2
2019-11-10,14:25:00,DRY,8.40,8.10,27.5,777.00,764.3
2019-11-10,14:30:00,DRY,6.57,8.17,26.3,777.00,754.6
2019-11-10,14:35:00,DRY,8.30,8.50,26.0,777.00,745.5
2019-11-10,14:40:00,DRY,5.90,8.53,26.3,777.00,735.9
2019-11-10,14:45:00,DRY,5.70,8.95,24.0,777.00,727.0
2019-11-10,14:50:00,DRY,3.27,9.07,36.7,777.00,715.1
2019-11-10,14:55:00,DRY,5.30,8.35,37.0,777.00,703.9
2019-11-10,15:00:00,DRY,5.50,8.60,32.7,777.00,690.3
2019-11-10,15:05:00,DRY,9.15,8.55,26.5,777.00,678.7
2019-11-10,15:10:00,DRY,5.63,8.93,25.0,777.00,664.5
2019-11-10,15:15:00,DRY,6.60,8.85,24.0,777.00,651.2
2019-11-10,15:20:00,DRY,7.30,8.73,23.0,777.00,637.0
2019-11-10,15:25:00,DRY,3.55,8.90,24.5,777.00,622.8
2019-11-10,15:30:00,DRY,7.17,9.17,25.7,777.00,607.8
2019-11-10,15:35:00,DRY,4.35,9.05,28.0,777.00,592.0
2019-11-10,15:40:00,DRY,4.37,8.83,26.7,777.00,578.0
2019-11-10,15:45:00,DRY,5.65,8.75,27.5,777.00,561.4
2019-11-10,15:50:00,DRY,6.60,8.43,27.3,777.00,545.7
2019-11-10,15:55:00,DRY,7.60,7.70,50.0,777.00,529.7
2019-11-10,16:00:00,DRY,6.67,7.70,52.7,777.00,511.9
2019-11-10,16:05:00,DRY,4.05,8.00,47.5,777.00,494.2
2019-11-10,16:10:00,DRY,6.73,8.60,32.0,777.00,478.4
2019-11-10,16:15:00,DRY,7.60,8.70,31.0,777.00,460.9
2019-11-10,16:20:00,DRY,5.30,7.63,52.0,777.00,441.0
2019-11-10,16:25:00,DRY,5.05,7.10,58.0,777.00,422.0
2019-11-10,16:30:00,DRY,7.23,7.27,38.3,777.00,404.9
2019-11-10,16:35:00,DRY,7.50,8.20,32.0,777.00,385.2
2019-11-10,16:40:00,DRY,6.63,7.03,56.3,777.00,364.0
2019-11-10,16:45:00,WET,9.90,6.85,70.5,777.00,344.6
2019-11-10,16:50:00,WET,8.83,6.50,76.3,777.00,324.8
2019-11-10,16:55:00,WET,8.50,6.70,74.0,777.00,309.5
2019-11-10,17:00:00,DRY,7.00,6.80,57.0,777.00,284.2
2019-11-10,17:05:00,DRY,6.60,7.25,52.0,777.00,263.0
2019-11-10,17:10:00,DRY,6.47,7.33,49.7,777.00,243.9
2019-11-10,17:15:00,DRY,4.30,7.05,56.5,777.00,222.9
2019-11-10,17:20:00,DRY,6.50,7.47,43.0,777.00,204.1
2019-11-10,17:25:00,DRY,9.10,8.00,33.5,777.00,185.1
2019-11-10,17:30:00,DRY,6.23,6.97,50.7,777.00,165.4
2019-11-10,17:35:00,DRY,8.90,6.75,45.5,777.00,147.8
2019-11-10,17:40:00,DRY,7.73,6.97,44.0,777.00,126.9
2019-11-10,17:45:00,DRY,13.25,7.45,39.5,777.00,102.0
2019-11-10,17:50:00,DRY,8.97,6.33,58.3,777.00,78.6
2019-11-10,17:55:00,DRY,6.60,6.35,54.5,777.00,58.8
2019-11-10,18:00:00,DRY,10.60,7.20,37.3,777.00,42.2
2019-11-10,18:05:00,WET,12.40,5.65,72.0,777.00,33.8
2019-11-10,18:10:00,WET,11.33,5.20,88.3,777.00,36.5
2019-11-10,18:15:00,WET,11.20,4.55,94.5,777.00,48.6
2019-11-10,18:20:00,WET,10.20,4.73,97.7,777.00,70.5
2019-11-10,18:25:00,WET,13.60,5.15,98.0,777.00,70.9
2019-11-10,18:30:00,WET,10.07,4.60,94.7,777.00,65.6
2019-11-10,18:35:00,WET,11.15,4.45,84.5,777.00,32.1
2019-11-10,18:40:00,WET,7.73,4.90,74.7,777.00,14.9
2019-11-10,18:45:00,DRY,11.20,4.90,69.0,777.00,1.1
2019-11-10,18:50:00,DRY,10.00,5.63,65.0,777.00,1.2
2019-11-10,18:55:00,WET,10.50,5.30,71.5,777.00,1.1
2019-11-10,19:00:00,WET,8.97,5.17,72.3,777.00,1.3
2019-11-10,19:05:00,WET,11.30,5.45,79.0,777.00,2.1
2019-11-10,19:10:00,WET,7.77,4.97,94.0,777.00,39.1
2019-11-10,19:15:00,WET,11.45,5.10,92.0,777.00,51.3
2019-11-10,19:20:00,WET,9.67,4.90,84.7,777.00,36.2
2019-11-10,19:25:00,WET,13.05,4.80,77.0,777.50,24.6
2019-11-10,19:30:00,WET,12.40,5.47,80.0,777.33,9.3
2019-11-10,19:35:00,WET,13.10,5.50,68.0,778.00,5.4
2019-11-10,19:40:00,DRY,9.77,5.63,57.3,777.67,1.3
2019-11-10,19:45:00,WET,9.85,5.60,72.5,777.50,1.1
2019-11-10,19:50:00,WET,11.60,5.73,73.0,778.00,1.2
2019-11-10,19:55:00,WET,11.15,5.30,94.0,778.00,3.3
2019-11-10,20:00:00,WET,11.23,5.00,94.3,777.67,35.5
2019-11-10,20:05:00,WET,9.20,4.70,93.0,778.00,36.9
2019-11-10,20:10:00,WET,10.90,4.53,84.7,778.00,17.2
2019-11-10,20:15:00,WET,9.40,4.75,69.5,778.00,1.9
2019-11-10,20:20:00,DRY,10.93,5.03,68.7,778.00,1.1
2019-11-10,20:25:00,DRY,10.50,5.90,54.5,778.00,1.1
2019-11-10,20:30:00,DRY,9.00,5.77,51.0,778.00,1.1
2019-11-10,20:35:00,DRY,9.70,6.45,24.5,778.00,1.0
2019-11-10,20:40:00,DRY,9.77,6.93,25.7,778.00,1.2
2019-11-10,20:45:00,DRY,6.45,7.20,26.0,778.00,1.0
2019-11-10,20:50:00,DRY,10.07,7.07,26.3,778.00,1.3
2019-11-10,20:55:00,DRY,11.55,7.40,26.5,778.00,1.0
2019-11-10,21:00:00,DRY,10.90,7.23,35.3,778.00,0.8
2019-11-10,21:05:00,DRY,9.30,6.65,47.5,778.00,1.1
2019-11-10,21:10:00,DRY,8.00,6.87,39.3,778.00,1.1
2019-11-10,21:15:00,DRY,11.40,7.35,29.0,778.00,1.1
2019-11-10,21:20:00,DRY,9.70,7.17,25.0,778.00,1.2
2019-11-10,21:25:00,DRY,11.50,7.10,27.0,778.00,0.9
2019-11-10,21:30:00,DRY,9.47,6.83,29.7,778.00,1.0
2019-11-10,21:35:00,DRY,8.15,7.50,26.5,778.00,1.6
2019-11-10,21:40:00,DRY,10.77,7.37,31.0,778.67,1.1
2019-11-10,21:45:00,DRY,10.55,7.10,31.0,778.50,1.2
2019-11-10,21:50:00,DRY,10.40,7.27,29.3,779.00,0.9
2019-11-10,21:55:00,DRY,10.50,7.35,26.0,778.50,1.1
2019-11-10,22:00:00,DRY,10.67,7.53,24.7,778.67,1.1
2019-11-10,22:05:00,DRY,10.60,7.60,22.5,779.00,1.1
2019-11-10,22:10:00,DRY,9.17,7.43,25.7,779.00,2.2
2019-11-10,22:15:00,DRY,7.25,7.45,25.0,779.00,1.9
2019-11-10,22:20:00,DRY,10.60,7.17,25.0,779.00,1.2
2019-11-10,22:25:00,DRY,8.95,7.05,25.5,779.00,1.1
2019-11-10,22:30:00,DRY,8.93,6.93,25.0,779.00,0.9
2019-11-10,22:35:00,DRY,7.75,7.20,23.0,779.00,1.0
2019-11-10,22:40:00,DRY,9.47,7.27,22.3,779.00,0.6
2019-11-10,22:45:00,DRY,11.00,7.20,21.5,779.00,1.1
2019-11-10,22:50:00,DRY,8.00,7.37,21.7,779.00,1.1
2019-11-10,22:55:00,DRY,8.70,7.20,21.5,779.00,1.0
2019-11-10,23:00:00,DRY,8.83,7.20,23.0,779.00,1.1
2019-11-10,23:05:00,DRY,9.25,7.35,22.5,779.00,1.2
2019-11-10,23:10:00,DRY,12.30,7.37,26.7,779.00,1.1
2019-11-10,23:15:00,DRY,9.20,7.50,25.5,779.00,1.4
2019-11-10,23:20:00,DRY,8.60,7.30,25.7,779.00,1.1
2019-11-10,23:25:00,DRY,11.60,7.55,27.0,779.00,1.3
2019-11-10,23:30:00,DRY,13.07,7.27,29.3,778.67,1.1
2019-11-10,23:35:00,DRY,9.80,7.00,27.5,779.00,1.2
2019-11-10,23:40:00,DRY,9.33,7.03,28.7,779.00,1.1
2019-11-10,23:45:00,DRY,9.20,7.10,31.0,779.00,1.0
2019-11-10,23:50:00,DRY,9.53,7.13,30.7,778.67,1.5
2019-11-10,23:55:00,DRY,10.20,6.90,34.0,778.50,1.5
2019-11-11,00:00:00,DRY,10.20,6.90,35.3,779.00,1.3
2019-11-11,00:05:00,DRY,11.65,6.70,38.5,778.00,1.4
2019-11-11,00:10:00,DRY,8.53,6.73,38.0,778.00,1.1
2019-11-11,00:15:00,DRY,10.20,7.15,33.5,778.50,0.9
2019-11-11,00:20:00,DRY,9.53,7.23,34.7,778.00,1.1
2019-11-11,00:25:00,DRY,10.00,7.10,32.5,778.00,1.2
2019-11-11,00:30:00,DRY,9.73,7.10,37.0,778.00,0.9
2019-11-11,00:35:00,DRY,8.45,7.10,36.0,778.00,1.1
2019-11-11,00:40:00,DRY,9.17,6.80,36.7,778.00,0.8
2019-11-11,00:45:00,DRY,9.05,6.45,36.5,778.00,0.5
2019-11-11,00:50:00,DRY,9.63,6.67,34.3,778.00,1.2
2019-11-11,00:55:00,DRY,10.60,6.80,33.5,778.00,1.2
2019-11-11,01:00:00,DRY,6.97,6.73,32.3,778.00,1.2
2019-11-11,01:05:00,DRY,7.80,6.75,30.5,778.00,1.0
2019-11-11,01:10:00,DRY,7.93,6.80,30.0,778.00,1.2
2019-11-11,01:15:00,DRY,9.35,6.75,27.5,778.00,0.7
2019-11-11,01:20:00,DRY,7.67,6.33,32.7,778.00,1.3
2019-11-11,01:25:00,DRY,7.45,6.80,29.0,778.00,1.1
2019-11-11,01:30:00,DRY,7.73,6.60,31.7,778.00,1.3
2019-11-11,01:35:00,DRY,8.50,6.40,36.5,778.00,1.0
2019-11-11,01:40:00,DRY,6.67,6.13,33.0,778.00,0.9
2019-11-11,01:45:00,DRY,9.25,5.90,39.5,778.00,1.3
2019-11-11,01:50:00,DRY,9.73,6.03,34.0,778.00,0.9
2019-11-11,01:55:00,DRY,10.05,5.90,39.0,778.00,1.2
2019-11-11,02:00:00,DRY,8.87,5.93,36.0,778.00,1.2
2019-11-11,02:05:00,DRY,8.35,6.50,28.5,778.00,1.1
2019-11-11,02:10:00,DRY,8.63,6.73,24.3,778.00,0.8
2019-11-11,02:15:00,DRY,7.90,6.45,37.0,778.00,1.6
2019-11-11,02:20:00,DRY,10.97,6.80,28.0,778.00,1.2
2019-11-11,02:25:00,DRY,8.40,6.25,31.5,778.00,1.1
2019-11-11,02:30:00,DRY,8.90,6.73,21.0,778.00,1.0
2019-11-11,02:35:00,DRY,9.30,7.60,18.0,778.00,1.2
2019-11-11,02:40:00,DRY,10.03,6.93,28.0,778.00,1.2
2019-11-11,02:45:00,DRY,9.35,5.70,39.0,778.00,1.3
2019-11-11,02:50:00,DRY,6.40,6.40,24.7,778.00,1.6
2019-11-11,02:55:00,DRY,8.05,6.90,21.0,778.00,1.0
2019-11-11,03:00:00,DRY,9.15,7.35,19.5,778.00,1.4
2019-11-11,03:05:00,DRY,10.50,7.05,22.0,778.00,0.6
2019-11-11,03:10:00,DRY,9.03,7.30,21.0,778.00,1.8
2019-11-11,03:15:00,DRY,6.45,7.45,16.0,778.00,1.4
2019-11-11,03:20:00,DRY,10.67,8.03,15.7,778.00,1.0
2019-11-11,03:25:00,DRY,7.10,7.55,20.0,778.00,1.1
2019-11-11,03:30:00,DRY,9.47,8.13,14.3,777.67,1.6
2019-11-11,03:35:00,DRY,7.80,8.05,14.5,778.00,1.1
2019-11-11,03:40:00,DRY,8.97,7.97,14.7,778.00,1.4
2019-11-11,03:45:00,DRY,10.30,8.40,14.0,778.00,1.1
2019-11-11,03:50:00,DRY,9.10,8.17,15.0,778.00,1.5
2019-11-11,03:55:00,DRY,7.65,8.40,12.5,778.00,1.1
2019-11-11,04:00:00,DRY,8.03,8.30,14.3,778.00,1.2
2019-11-11,04:05:00,DRY,9.55,8.35,16.5,778.00,1.5
2019-11-11,04:10:00,DRY,8.07,8.37,18.0,778.00,1.3
2019-11-11,04:15:00,DRY,6.35,8.35,20.5,778.00,0.9
2019-11-11,04:20:00,DRY,6.63,8.40,18.3,778.00,1.2
2019-11-11,04:25:00,DRY,8.75,8.40,18.5,778.00,0.7
2019-11-11,04:30:00,DRY,7.57,8.53,21.3,778.00,1.2
2019-11-11,04:35:00,DRY,8.20,8.50,20.0,778.00,1.2
2019-11-11,04:40:00,DRY,6.67,8.80,18.3,778.00,1.6
2019-11-11,04:45:00,DRY,7.90,8.80,18.5,778.00,1.1
2019-11-11,04:50:00,DRY,6.93,8.77,18.7,778.00,1.4
2019-11-11,04:55:00,DRY,7.25,8.50,20.0,778.00,1.1
2019-11-11,05:00:00,DRY,7.20,8.63,19.0,778.00,1.0
2019-11-11,05:05:00,DRY,8.25,8.70,17.5,778.00,1.0
2019-11-11,05:10:00,DRY,8.13,8.80,17.3,778.00,2.3
2019-11-11,05:15:00,DRY,6.70,8.80,15.0,778.00,1.4
2019-11-11,05:20:00,DRY,6.83,8.90,13.0,778.00,1.2
2019-11-11,05:25:00,DRY,7.30,9.05,13.5,778.00,1.4
2019-11-11,05:30:00,DRY,5.73,9.33,13.0,778.00,1.6
2019-11-11,05:35:00,DRY,5.60,9.40,12.5,778.00,1.7
2019-11-11,05:40:00,DRY,5.07,9.50,11.0,778.00,1.8
2019-11-11,05:45:00,DRY,6.70,9.80,9.5,778.00,1.3
2019-11-11,05:50:00,DRY,5.17,10.10,8.0,778.00,1.2
2019-11-11,05:55:00,DRY,4.10,10.15,8.5,778.00,1.2
2019-11-11,06:00:00,DRY,4.90,10.20,8.7,778.00,1.4
2019-11-11,06:05:00,DRY,7.70,10.20,9.5,778.00,1.2
2019-11-11,06:10:00,DRY,5.70,9.80,10.0,778.00,1.3
2019-11-11,06:15:00,DRY,6.60,9.85,10.0,778.00,1.0
2019-11-11,06:20:00,DRY,5.73,9.80,10.0,778.00,1.2
2019-11-11,06:25:00,DRY,4.70,9.45,10.5,778.00,1.7
2019-11-11,06:30:00,DRY,4.93,9.87,9.7,778.00,1.5
2019-11-11,06:35:00,DRY,2.55,9.95,9.5,778.00,2.1
2019-11-11,06:40:00,DRY,3.87,10.27,9.7,778.00,1.0
2019-11-11,06:45:00,DRY,3.25,9.85,10.0,778.00,1.5
2019-11-11,06:50:00,DRY,4.17,9.43,10.0,778.00,1.1
2019-11-11,06:55:00,DRY,2.45,9.15,10.0,778.00,1.2
2019-11-11,07:00:00,DRY,3.13,8.97,9.3,778.00,1.7
2019-11-11,07:05:00,DRY,1.85,8.80,9.0,778.00,0.9
2019-11-11,07:10:00,DRY,4.07,8.63,8.7,778.00,1.6
2019-11-11,07:15:00,DRY,3.45,8.60,9.0,778.00,2.2
2019-11-11,07:20:00,DRY,3.33,8.63,8.0,778.00,3.6
2019-11-11,07:25:00,DRY,5.35,8.55,8.5,778.00,5.0
2019-11-11,07:30:00,DRY,4.70,8.37,9.0,778.33,7.3
2019-11-11,07:35:00,DRY,3.55,8.30,8.5,778.50,10.3
2019-11-11,07:40:00,DRY,3.43,8.27,9.0,778.00,12.7
2019-11-11,07:45:00,DRY,6.00,8.15,10.0,778.00,15.4
2019-11-11,07:50:00,DRY,4.07,8.37,10.0,778.00,18.3
2019-11-11,07:55:00,DRY,5.75,8.35,10.0,778.50,20.8
2019-11-11,08:00:00,DRY,3.47,8.40,11.3,778.67,22.8
2019-11-11,08:05:00,DRY,6.00,8.65,11.0,778.50,52.0
2019-11-11,08:10:00,DRY,5.03,8.67,11.7,778.67,149.1
2019-11-11,08:15:00,DRY,5.90,8.90,11.0,779.00,168.6
2019-11-11,08:20:00,DRY,6.03,8.83,12.0,779.00,188.7
2019-11-11,08:25:00,DRY,2.60,8.80,12.5,778.50,209.7
2019-11-11,08:30:00,DRY,5.27,9.17,11.3,778.33,229.9
2019-11-11,08:35:00,DRY,4.10,9.40,11.5,779.00,249.6
2019-11-11,08:40:00,DRY,4.70,9.43,12.0,778.67,270.5
2019-11-11,08:45:00,DRY,4.95,10.05,10.5,778.00,291.2
2019-11-11,08:50:00,DRY,5.27,9.93,12.0,778.00,311.9
2019-11-11,08:55:00,DRY,5.95,9.90,11.5,778.00,331.1
2019-11-11,09:00:00,DRY,3.30,9.90,11.3,778.00,351.0
2019-11-11,09:05:00,DRY,2.80,10.05,11.5,778.00,371.3
2019-11-11,09:10:00,DRY,4.40,9.90,13.3,778.00,390.4
2019-11-11,09:15:00,DRY,4.40,11.15,9.5,778.00,408.6
2019-11-11,09:20:00,DRY,5.83,11.90,7.7,778.33,426.9
2019-11-11,09:25:00,DRY,6.30,12.45,8.0,778.50,446.5
2019-11-11,09:30:00,DRY,2.37,11.67,10.0,778.33,465.0
2019-11-11,09:35:00,DRY,5.95,11.85,9.0,778.00,482.9
2019-11-11,09:40:00,DRY,4.23,12.27,9.7,778.00,501.5
2019-11-11,09:45:00,DRY,2.50,12.00,9.5,778.50,518.3
2019-11-11,09:50:00,DRY,2.27,12.07,10.0,779.00,536.2
2019-11-11,09:55:00,DRY,3.05,12.20,10.5,778.50,552.6
2019-11-11,10:00:00,DRY,1.83,11.57,16.0,778.67,568.5
2019-11-11,10:05:00,DRY,3.85,11.25,16.0,778.00,583.8
2019-11-11,10:10:00,DRY,2.50,11.13,16.7,778.00,600.0
2019-11-11,10:15:00,DRY,2.55,11.45,15.5,778.00,614.8
2019-11-11,10:20:00,DRY,4.17,12.13,12.0,778.33,627.2
2019-11-11,10:25:00,DRY,2.40,12.35,12.0,778.50,640.1
2019-11-11,10:30:00,DRY,4.13,12.63,11.7,778.67,654.1
2019-11-11,10:35:00,DRY,3.65,12.65,12.0,779.00,666.8
2019-11-11,10:40:00,DRY,3.00,11.80,15.0,778.67,679.3
2019-11-11,10:45:00,DRY,4.05,11.75,17.5,778.00,691.5
2019-11-11,10:50:00,DRY,2.77,10.80,25.0,778.67,702.9
2019-11-11,10:55:00,DRY,4.45,10.40,28.0,779.00,716.1
2019-11-11,11:00:00,DRY,3.83,10.13,30.3,779.00,725.5
2019-11-11,11:05:00,DRY,2.85,9.65,35.0,779.00,733.3
2019-11-11,11:10:00,DRY,3.07,9.43,35.3,779.00,744.6
2019-11-11,11:15:00,DRY,4.35,9.55,35.5,778.50,755.1
2019-11-11,11:20:00,DRY,3.43,10.00,32.3,778.67,762.5
2019-11-11,11:25:00,DRY,2.35,10.30,30.5,778.50,771.9
2019-11-11,11:30:00,DRY,3.30,10.37,30.0,778.67,779.1
2019-11-11,11:35:00,DRY,3.20,10.15,31.5,779.00,789.2
2019-11-11,11:40:00,DRY,4.30,10.00,32.0,778.50,794.4
2019-11-11,11:45:00,DRY,2.40,10.45,26.5,778.00,803.1
2019-11-11,11:50:00,DRY,2.37,10.63,28.0,778.67,809.0
2019-11-11,11:55:00,DRY,2.85,10.10,36.0,778.50,814.9
2019-11-11,12:00:00,DRY,5.20,9.60,38.7,778.67,821.3
2019-11-11,12:05:00,DRY,3.00,9.80,38.0,778.50,827.5
2019-11-11,12:10:00,DRY,5.30,9.37,39.3,778.33,831.4
2019-11-11,12:15:00,DRY,5.60,9.10,42.5,778.00,834.3
2019-11-11,12:20:00,DRY,6.33,9.17,41.0,778.00,837.1
2019-11-11,12:25:00,DRY,5.70,9.40,40.0,778.00,841.0
2019-11-11,12:30:00,DRY,7.43,9.33,40.3,778.33,842.4
2019-11-11,12:35:00,DRY,7.30,9.65,38.5,778.00,844.3
2019-11-11,12:40:00,DRY,6.37,10.10,35.3,778.00,842.7
2019-11-11,12:45:00,DRY,7.75,10.35,35.0,778.00,841.2
2019-11-11,12:50:00,DRY,7.30,10.67,32.0,778.00,843.5
2019-11-11,12:55:00,DRY,5.75,10.80,28.5,778.00,844.9
2019-11-11,13:00:00,DRY,7.00,11.13,28.0,778.00,844.1
2019-11-11,13:05:00,DRY,6.80,11.50,26.5,778.00,843.3
2019-11-11,13:10:00,DRY,6.33,11.97,29.0,778.00,841.3
2019-11-11,13:15:00,DRY,8.20,12.00,28.5,778.00,840.0
2019-11-11,13:20:00,DRY,5.00,11.80,29.7,778.00,837.3
2019-11-11,13:25:00,DRY,3.90,12.35,31.5,778.00,834.1
2019-11-11,13:30:00,DRY,5.70,12.20,32.0,778.00,830.0
2019-11-11,13:35:00,DRY,5.70,12.30,31.0,778.00,823.8
2019-11-11,13:40:00,DRY,7.33,12.17,32.3,778.00,819.4
2019-11-11,13:45:00,DRY,5.25,12.05,32.5,778.00,814.2
2019-11-11,13:50:00,DRY,5.20,12.07,32.3,778.00,808.4
2019-11-11,13:55:00,DRY,7.05,11.95,32.5,778.00,803.5
2019-11-11,14:00:00,DRY,5.30,11.93,33.3,777.67,796.3
2019-11-11,14:05:00,DRY,3.75,11.75,34.5,777.00,788.9
2019-11-11,14:10:00,DRY,5.30,11.50,35.3,777.00,782.9
2019-11-11,14:15:00,DRY,5.40,10.70,40.5,777.00,774.5
2019-11-11,14:20:00,DRY,4.50,10.33,44.0,777.00,766.1
2019-11-11,14:25:00,DRY,5.85,9.75,46.5,777.00,758.5
2019-11-11,14:30:00,DRY,5.73,9.90,46.3,777.00,748.7
2019-11-11,14:35:00,DRY,6.15,9.95,46.0,777.00,740.6
2019-11-11,14:40:00,DRY,5.40,9.83,44.0,777.00,728.4
2019-11-11,14:45:00,DRY,5.00,10.00,42.5,777.00,718.0
2019-11-11,14:50:00,DRY,7.03,10.20,43.3,777.00,707.7
2019-11-11,14:55:00,DRY,8.50,9.80,43.0,777.00,697.3
2019-11-11,15:00:00,DRY,5.97,10.03,43.7,777.00,684.7
2019-11-11,15:05:00,DRY,5.95,9.85,44.0,777.00,672.0
2019-11-11,15:10:00,DRY,7.83,9.80,45.0,777.00,659.2
2019-11-11,15:15:00,DRY,8.15,9.70,43.5,777.00,645.5
2019-11-11,15:20:00,DRY,6.50,10.00,41.7,777.00,632.4
2019-11-11,15:25:00,DRY,8.60,9.35,49.5,777.00,617.5
2019-11-11,15:30:00,DRY,6.10,9.43,48.7,777.00,602.2
2019-11-11,15:35:00,DRY,6.35,9.65,45.0,777.00,587.0
2019-11-11,15:40:00,DRY,7.17,9.23,54.0,777.00,570.8
2019-11-11,15:45:00,DRY,8.20,9.15,56.0,777.00,554.6
2019-11-11,15:50:00,DRY,8.27,9.10,55.7,777.00,538.6
2019-11-11,15:55:00,DRY,6.85,9.00,57.0,777.00,520.8
2019-11-11,16:00:00,DRY,6.23,8.63,59.3,777.00,503.7
2019-11-11,16:05:00,DRY,7.50,9.00,58.5,777.00,485.3
2019-11-11,16:10:00,DRY,6.97,8.33,61.7,777.00,467.5
2019-11-11,16:15:00,DRY,5.15,8.55,61.5,777.00,449.4
2019-11-11,16:20:00,DRY,5.50,8.17,63.7,777.00,431.1
2019-11-11,16:25:00,DRY,4.90,8.10,65.5,777.00,412.5
2019-11-11,16:30:00,DRY,4.27,7.93,66.3,777.00,393.6
2019-11-11,16:35:00,DRY,5.10,7.85,64.5,777.00,374.0
2019-11-11,16:40:00,DRY,5.57,8.00,63.7,777.00,354.7
2019-11-11,16:45:00,DRY,5.20,8.10,62.0,777.00,335.1
2019-11-11,16:50:00,DRY,4.55,8.45,61.0,777.00,319.4
2019-11-11,16:55:00,DRY,7.30,8.05,65.5,777.00,294.6
2019-11-11,17:00:00,DRY,5.40,8.07,64.3,777.00,274.8
2019-11-11,17:05:00,DRY,7.90,8.00,65.0,777.00,255.2
2019-11-11,17:10:00,DRY,5.67,8.03,63.0,777.00,235.2
2019-11-11,17:15:00,DRY,7.10,8.35,61.0,777.00,216.0
2019-11-11,17:20:00,DRY,7.10,8.23,61.7,777.00,196.5
2019-11-11,17:25:00,DRY,7.00,8.30,59.0,777.00,178.2
2019-11-11,17:30:00,DRY,7.63,8.70,57.7,777.00,159.1
2019-11-11,17:35:00,DRY,8.00,8.40,60.0,777.00,141.8
2019-11-11,17:40:00,DRY,5.93,8.47,58.0,777.00,120.2
2019-11-11,17:45:00,DRY,8.00,9.00,55.5,777.00,95.4
2019-11-11,17:50:00,DRY,7.53,8.90,54.7,777.00,74.5
2019-11-11,17:55:00,DRY,8.45,8.90,54.5,777.00,54.5
2019-11-11,18:00:00,DRY,8.03,8.93,51.3,777.00,39.3
2019-11-11,18:05:00,DRY,7.90,8.75,52.5,777.00,26.4
2019-11-11,18:10:00,DRY,7.83,8.63,50.7,777.00,17.9
2019-11-11,18:15:00,DRY,8.60,8.55,52.0,776.50,14.0
2019-11-11,18:20:00,DRY,7.20,8.60,50.0,776.67,10.0
2019-11-11,18:25:00,DRY,8.35,8.50,50.5,776.50,5.4
2019-11-11,18:30:00,DRY,9.73,8.37,51.0,777.00,3.6
2019-11-11,18:35:00,DRY,7.65,8.80,39.0,776.00,2.2
2019-11-11,18:40:00,DRY,8.87,9.03,38.3,776.00,1.6
2019-11-11,18:45:00,DRY,7.20,8.70,41.5,776.50,1.4
2019-11-11,18:50:00,DRY,9.47,8.67,41.7,776.00,1.3
2019-11-11,18:55:00,DRY,9.05,8.70,43.5,776.00,1.1
2019-11-11,19:00:00,DRY,9.30,8.60,42.3,776.00,1.1
2019-11-11,19:05:00,DRY,9.10,8.70,42.0,777.00,1.1
2019-11-11,19:10:00,DRY,6.90,9.13,36.7,777.00,0.9
2019-11-11,19:15:00,DRY,11.20,9.20,34.5,777.00,1.1
2019-11-11,19:20:00,DRY,8.90,9.13,35.3,776.67,1.0
2019-11-11,19:25:00,DRY,8.05,8.85,36.0,776.50,1.2
2019-11-11,19:30:00,DRY,8.50,8.97,35.7,776.67,0.8
2019-11-11,19:35:00,DRY,7.80,9.05,32.0,776.50,1.2
2019-11-11,19:40:00,DRY,7.90,8.80,35.3,776.67,1.2
2019-11-11,19:45:00,DRY,11.10,9.10,33.0,776.50,1.3
2019-11-11,19:50:00,DRY,7.03,8.83,34.0,777.00,1.2
2019-11-11,19:55:00,DRY,8.05,8.85,35.0,777.00,1.1
2019-11-11,20:00:00,DRY,7.80,8.93,32.3,777.00,1.4
2019-11-11,20:05:00,DRY,7.20,9.20,30.5,777.00,1.3
2019-11-11,20:10:00,DRY,9.40,9.07,34.3,777.00,1.0
2019-11-11,20:15:00,DRY,9.10,8.95,37.0,777.00,1.6
2019-11-11,20:20:00,DRY,10.20,9.07,39.3,777.00,1.2
2019-11-11,20:25:00,DRY,9.00,8.85,39.5,777.00,1.3
2019-11-11,20:30:00,DRY,6.40,9.00,38.7,777.00,1.0
2019-11-11,20:35:00,DRY,8.20,9.00,40.5,777.00,1.1
2019-11-11,20:40:00,DRY,7.50,9.00,39.3,777.00,1.0
2019-11-11,20:45:00,DRY,8.35,8.80,40.0,777.00,1.0
2019-11-11,20:50:00,DRY,9.07,8.73,41.0,777.00,1.1
2019-11-11,20:55:00,DRY,9.50,9.00,40.0,777.00,1.9
2019-11-11,21:00:00,DRY,5.97,9.30,39.0,777.00,1.3
2019-11-11,21:05:00,DRY,8.35,9.40,41.0,777.00,0.9
2019-11-11,21:10:00,DRY,12.27,9.27,40.7,777.00,1.1
2019-11-11,21:15:00,DRY,7.70,9.35,40.0,777.00,1.2
2019-11-11,21:20:00,DRY,7.97,9.30,40.3,777.00,1.2